Temp
15 15 15 13 13 13 12 12 11 11 10 9 8 8 8 8 7 6 6 6 5 5 4 4 3 2 1 1 1 0 0 -1 -2 -2 -2 -2 -3 -4 -4 -4 -4 -4 -4
14 14 13 13 13 13 12 12 11 10 9 9 8 8 8 7 7 6 6 5 5 4 4 3 2 2 1 1 1 0 -1 -1 -2 -3 -3 -4 -4 -4 -5 -5 -5 -5 -5
13 13 13 13 12 12 10 10 10 9 8 8 8 8 7 7 6 6 6 5 5 4 3 3 2 1 1 1 0 -1 -1 -2 -3 -4 -5 -5 -5 -5 -5 -5 -5 -5 -5
12 12 11 10 10 10 10 9 8 8 8 8 8 7 7 6 6 6 6 5 4 4 3 2 2 1 1 1 -0 -1 -2 -3 -3 -4 -5 -6 -6 -6 -6 -6 -6 -6 -6
11 10 10 9 10 10 8 8 7 6 6 5 6 5 6 5 5 6 5 5 4 3 2 2 1 1 0 -0 -1 -1 -2 -3 -4 -5 -6 -7 -7 -7 -7 -7 -7 -7 -7
10 9 9 10 9 8 7 6 5 4 4 4 4 3 4 5 4 5 5 5 4 3 2 1 1 0 -0 -1 -1 -2 -3 -4 -4 -6 -6 -7 -8 -7 -7 -8 -8 -8 -6
9 8 9 8 7 6 5 4 4 4 4 4 3 3 4 4 4 4 5 4 3 2 2 1 0 -0 -1 -2 -2 -3 -4 -4 -5 -6 -7 -7 -8 -7 -7 -8 -7 -7 -7
8 8 7 6 5 5 4 4 4 3 2 2 3 3 3 4 4 4 4 3 2 2 1 0 -0 -1 -1 -2 -3 -3 -4 -4 -5 -5 -6 -7 -7 -7 -7 -7 -7 -7 -7
5 4 4 4 4 4 5 4 3 2 2 3 3 3 3 3 3 3 3 2 2 1 -0 -1 -1 -2 -2 -2 -3 -4 -4 -4 -5 -6 -7 -7 -7 -7 -7 -7 -7 -8 -7
3 3 3 3 2 3 3 2 2 3 3 3 3 3 3 3 3 2 2 2 1 0 -0 -2 -2 -2 -2 -3 -4 -4 -5 -5 -5 -6 -6 -6 -6 -7 -7 -7 -7 -8 -8
4 5 4 4 4 3 2 2 2 2 2 3 3 3 2 2 2 2 1 1 1 0 -0 -1 -2 -2 -2 -3 -4 -5 -5 -5 -6 -6 -6 -6 -6 -6 -7 -7 -7 -8 -9
4 4 4 3 3 2 2 2 2 2 2 2 2 2 2 2 2 1 1 0 0 -1 -1 -1 -1 -2 -3 -3 -4 -5 -5 -6 -6 -6 -6 -6 -6 -6 -7 -7 -8 -8 -8
3 3 2 2 2 2 2 2 2 2 1 1 1 1 1 1 1 1 0 0 -0 -1 -1 -1 -1 -3 -3 -4 -4 -5 -5 -6 -6 -6 -6 -6 -6 -7 -7 -8 -8 -8 -7
2 2 2 2 2 2 2 1 1 1 1 1 1 1 1 1 0 0 -0 -0 -0 -1 -1 -2 -2 -3 -4 -5 -5 -5 -5 -5 -5 -5 -5 -5 -6 -7 -7 -8 -8 -8 -8
2 2 2 2 1 1 1 1 1 1 1 1 1 1 0 0 1 0 -0 -1 -1 -1 -1 -3 -4 -4 -5 -5 -5 -5 -5 -5 -5 -5 -5 -5 -6 -7 -8 -8 -8 -9 -9
1 0 0 -0 -0 -0 -1 -0 1 1 1 1 1 1 1 0 0 0 -0 -1 -1 -1 -3 -4 -5 -5 -5 -5 -5 -5 -5 -5 -5 -5 -5 -5 -6 -7 -8 -8 -9 -9 -9
-1 -2 -2 -2 -2 -3 -3 -3 -3 -2 -2 -1 -1 -1 -1 -0 -1 -1 -1 -1 -1 -2 -3 -4 -5 -5 -5 -5 -5 -5 -5 -5 -5 -5 -5 -5 -6 -7 -8 -8 -9 -9 -9
-3 -4 -4 -4 -4 -4 -4 -4 -4 -3 -3 -2 -2 -2 -2 -2 -2 -2 -2 -2 -2 -3 -3 -4 -5 -5 -5 -5 -5 -5 -5 -5 -6 -5 -5 -6 -6 -7 -8 -8 -9 -9 -9
-5 -6 -6 -6 -6 -6 -7 -7 -6 -6 -6 -5 -4 -3 -3 -2 -2 -2 -3 -3 -3 -3 -3 -4 -4 -5 -5 -5 -5 -5 -5 -5 -5 -5 -5 -6 -7 -8 -8 -8 -9 -9 -9
-7 -7 -8 -8 -8 -8 -8 -8 -7 -7 -7 -6 -6 -5 -5 -4 -4 -4 -3 -3 -3 -4 -4 -4 -4 -4 -5 -5 -5 -5 -5 -5 -6 -6 -6 -6 -6 -7 -8 -8 -9 -9 -9
-9 -9 -9 -9 -9 -10 -9 -10 -9 -9 -10 -9 -8 -6 -5 -5 -4 -4 -4 -4 -3 -3 -4 -4 -4 -4 -5 -5 -5 -5 -5 -5 -5 -5 -5 -6 -7 -7 -7 -8 -9 -9 -9
-10 -11 -11 -11 -12 -12 -12 -12 -12 -11 -11 -11 -11 -11 -10 -6 -4 -4 -4 -4 -4 -4 -5 -4 -4 -4 -5 -5 -5 -5 -5 -5 -5 -5 -5 -5 -6 -7 -7 -8 -9 -9 -9
-12 -13 -13 -13 -14 -14 -14 -14 -13 -14 -13 -13 -13 -12 -12 -12 -12 -11 -10 -9 -9 -7 -6 -6 -6 -5 -5 -5 -4 -4 -5 -4 -4 -4 -5 -5 -6 -6 -7 -8 -9 -9 -10
-13 -14 -15 -15 -15 -16 -16 -16 -16 -16 -16 -15 -14 -14 -14 -13 -13 -13 -13 -12 -12 -10 -9 -9 -8 -8 -7 -6 -6 -5 -5 -4 -4 -4 -5 -5 -5 -6 -7 -8 -8 -9 -10
-15 -15 -16 -16 -17 -17 -17 -17 -17 -17 -17 -17 -16 -16 -15 -15 -15 -15 -15 -14 -14 -12 -11 -10 -10 -10 -8 -7 -7 -6 -6 -6 -5 -4 -5 -5 -6 -6 -6 -8 -8 -9 -10
-16 -16 -17 -17 -18 -18 -18 -19 -19 -19 -19 -18 -18 -18 -17 -16 -16 -17 -16 -16 -15 -14 -13 -12 -11 -10 -10 -8 -8 -7 -6 -6 -6 -5 -5 -5 -6 -7 -7 -7 -9 -9 -10
Height
791 794 797 800 805 810 815 819 822 825 827 828 834 835 836 838 841 843 843 843 843 842 841 841 841 839 838 838 837 836 836 835 834 829 828 827 825 823 819 815 811 809 806
787 790 794 799 804 808 811 812 816 820 827 832 834 835 832 835 839 840 840 840 838 838 836 836 836 836 835 834 833 832 832 832 831 827 823 823 820 818 815 810 807 804 801
785 789 793 797 801 805 811 816 819 823 825 827 828 833 835 833 835 837 836 835 833 833 832 832 832 832 831 830 829 829 829 829 827 825 822 820 816 813 810 806 802 799 795
783 789 795 800 802 807 812 814 817 823 828 827 827 829 832 832 831 831 829 827 828 827 828 828 828 828 827 826 825 826 825 825 824 822 820 816 813 810 808 803 797 794 789
783 789 791 797 802 807 811 813 817 817 822 827 829 830 832 829 827 823 823 823 822 823 823 824 824 823 822 822 822 821 821 821 820 819 817 813 810 807 804 800 795 789 785
782 787 792 799 803 806 809 814 816 820 823 826 826 825 824 823 822 820 819 818 817 818 817 818 819 819 818 817 817 817 817 816 816 815 812 810 807 805 800 797 793 788 782
783 787 791 797 802 806 810 811 817 821 823 822 822 823 820 818 816 814 813 812 812 812 813 813 813 813 814 813 813 813 813 812 811 810 807 806 803 801 797 793 790 786 782
786 790 794 797 800 805 808 812 815 816 817 819 820 818 815 812 811 809 808 807 808 808 808 809 809 809 808 808 809 808 808 808 807 805 803 802 800 797 794 790 786 782 778
789 793 798 802 805 807 809 812 812 815 815 814 814 812 809 808 807 805 804 803 803 803 803 804 804 804 803 803 803 803 803 803 802 801 800 799 797 794 791 787 783 780 773
796 799 803 806 808 809 810 812 811 811 811 810 808 807 805 803 802 801 801 800 799 798 798 798 799 798 798 798 798 798 798 798 798 797 796 795 793 790 788 785 781 778 774
801 803 806 807 809 809 810 810 809 808 807 805 803 802 800 799 798 797 796 795 793 792 792 792 792 793 792 792 793 793 793 794 793 793 792 790 788 786 784 781 779 776 772
804 806 807 807 808 808 808 807 806 805 803 801 799 796 795 793 792 792 791 789 788 787 785 786 786 786 786 786 787 788 788 788 788 788 786 785 783 782 780 777 774 771 767
806 807 807 807 807 806 805 804 803 801 799 796 794 791 788 788 787 786 784 783 782 780 779 779 779 780 780 781 781 782 783 783 783 782 781 779 778 777 775 773 770 766 762
807 807 807 806 805 804 803 801 799 797 795 792 789 786 783 781 780 779 777 776 775 773 772 772 771 771 773 773 775 776 776 777 777 776 775 774 773 773 771 769 766 762 758
807 807 806 805 803 801 799 797 794 792 790 786 783 780 778 773 771 771 769 768 767 766 765 764 764 764 765 765 767 768 769 770 770 770 770 769 769 768 767 766 763 760 757
806 806 804 802 799 797 794 789 789 786 783 780 777 774 770 766 765 763 761 760 759 758 757 756 756 756 756 757 758 759 761 763 763 764 764 764 764 764 763 762 761 758 755
806 804 802 800 797 795 792 789 783 774 776 771 768 765 763 759 755 753 753 751 751 751 750 749 748 747 746 748 750 752 753 755 756 757 758 759 760 760 760 758 757 755 752
806 804 802 800 798 795 792 788 784 779 770 762 760 757 753 750 747 745 743 743 742 742 742 741 740 740 739 740 743 744 745 748 749 751 752 753 755 756 756 755 754 752 750
805 803 801 798 796 793 790 786 781 776 771 763 755 749 747 742 738 735 733 732 733 733 733 733 732 732 731 732 734 736 738 740 742 744 745 747 749 751 751 751 750 749 748
804 802 799 797 794 791 788 784 780 775 768 760 753 747 741 737 729 727 724 724 725 725 725 725 725 724 724 724 726 729 731 733 735 737 739 741 743 745 746 747 747 746 745
802 800 798 795 793 790 787 783 779 774 769 761 752 742 736 731 724 721 718 718 718 719 719 719 717 716 716 717 719 721 723 725 727 729 732 734 736 738 741 742 743 743 742
802 800 798 795 792 789 786 783 778 774 768 761 752 743 733 722 714 712 712 711 713 713 714 714 711 710 709 710 712 714 716 718 720 722 724 727 730 732 735 737 739 739 739
802 800 797 794 792 788 785 781 777 773 768 762 755 747 739 732 726 722 715 713 713 710 711 710 709 707 706 706 706 708 709 710 712 715 717 719 722 725 729 732 734 735 736
802 800 797 794 791 788 784 781 777 772 768 762 756 750 744 739 733 728 724 719 716 711 709 709 709 707 705 703 703 704 704 705 706 708 710 712 714 718 722 726 729 731 733
802 800 797 794 791 788 784 780 776 771 767 762 757 752 747 742 736 731 726 722 717 712 709 709 707 705 703 701 700 699 699 700 702 703 704 706 708 710 714 719 723 727 729
802 799 797 794 791 787 783 779 775 771 766 762 757 753 748 743 739 733 728 723 717 712 710 707 705 703 700 698 696 695 694 694 695 697 699 700 702 704 708 712 718 721 725
Wind_Speed
32 32 30 29 30 30 28 27 27 27 27 24 17 15 15 17 17 14 11 12 13 12 11 10 10 9 9 10 10 10 9 10 8 12 18 21 21 25 23 20 20 19 17
34 32 32 33 31 29 30 33 30 26 24 16 15 15 15 16 14 13 11 14 16 15 12 11 11 9 11 13 12 12 12 10 12 15 21 21 25 26 23 22 21 19 19
35 35 35 34 34 31 28 25 23 18 13 12 11 11 15 14 12 12 14 18 19 18 14 13 12 12 14 14 14 12 12 12 11 15 19 23 28 26 24 22 21 22 24
35 35 33 30 26 24 21 20 20 9 7 5 5 6 11 10 12 15 19 20 20 18 15 14 13 14 15 13 11 13 13 12 12 14 21 22 21 23 19 17 23 21 26
31 30 29 26 24 22 19 15 10 12 7 3 2 5 11 13 20 24 21 19 20 16 14 16 14 13 12 12 13 13 12 12 12 15 19 17 17 17 15 21 21 25 25
28 26 24 21 21 19 18 15 12 10 5 1 8 15 18 18 15 15 17 21 20 19 18 16 14 13 13 13 13 12 11 11 13 15 18 14 18 16 21 19 21 17 10
24 23 23 22 22 20 16 14 10 4 6 14 14 16 13 14 17 17 18 22 22 19 18 17 15 13 13 14 13 13 12 12 13 16 18 18 17 19 19 20 19 20 19
22 21 23 26 24 22 19 12 3 10 14 13 13 12 16 17 14 14 16 19 20 19 19 17 15 13 14 15 16 16 15 14 15 17 14 14 15 17 18 19 21 22 21
23 24 23 24 22 17 8 6 12 11 13 13 14 13 12 13 15 14 15 19 20 21 18 19 18 16 14 16 17 16 15 16 17 12 11 12 12 13 15 18 19 17 18
26 27 20 13 8 6 6 7 8 11 13 12 14 16 17 18 16 13 13 17 24 23 22 22 20 18 15 15 17 16 15 17 14 11 11 12 13 15 16 14 16 16 16
16 9 3 2 6 7 7 8 9 11 13 17 19 16 16 18 17 16 17 21 24 26 27 24 23 19 17 16 17 17 17 15 13 13 15 16 17 17 16 15 16 18 17
7 3 1 4 4 6 9 11 11 13 13 16 19 21 20 18 17 17 18 22 23 27 27 27 25 22 19 17 17 18 16 16 15 17 19 20 20 17 16 16 17 17 17
4 3 3 5 8 9 11 14 14 14 18 21 20 22 22 18 20 22 23 22 24 28 28 29 27 23 21 19 19 17 17 18 19 21 21 21 17 15 16 16 16 16 18
5 6 7 9 11 12 13 15 18 21 22 24 24 25 25 27 26 23 22 22 23 26 29 30 32 28 24 20 20 20 21 19 21 21 20 19 18 15 15 14 16 17 19
8 10 12 14 16 19 20 22 23 25 25 27 29 29 30 31 30 24 22 23 23 23 25 28 25 25 25 25 25 25 23 20 21 20 19 18 16 15 16 12 14 15 16
12 15 18 20 22 23 26 30 29 31 32 32 33 35 38 38 33 29 25 23 23 22 23 22 22 25 25 26 27 26 24 22 21 21 19 18 16 14 14 11 12 13 15
16 18 21 23 24 24 24 22 25 33 29 31 31 31 33 38 42 33 31 25 23 20 23 22 25 24 27 27 27 27 25 23 21 20 19 19 15 13 12 12 12 13 14
18 19 20 20 20 21 22 23 23 25 29 33 30 30 32 36 36 38 31 26 22 17 20 23 26 26 29 28 27 26 24 21 19 18 18 18 16 14 13 12 11 12 12
20 21 22 22 22 21 21 22 23 25 26 29 32 32 31 34 36 34 28 22 20 19 19 23 28 28 29 29 27 27 23 21 19 19 18 20 18 15 14 12 11 10 10
19 18 18 19 19 19 19 20 23 26 28 28 29 30 32 31 26 27 29 22 19 17 17 22 27 30 30 30 25 23 22 21 20 21 21 22 21 17 16 12 10 9 7
18 17 19 18 17 19 20 21 21 21 25 28 32 34 34 32 29 25 24 20 20 19 18 22 27 28 29 29 25 22 20 21 21 22 22 22 23 20 17 14 10 9 7
17 16 18 18 17 18 19 18 20 21 23 26 30 35 39 28 28 24 21 15 14 11 10 17 25 27 27 26 25 23 23 22 22 23 22 22 23 22 17 16 13 10 7
15 16 19 18 18 19 19 21 19 22 23 24 26 28 31 31 31 29 26 17 13 8 8 11 10 12 20 23 22 21 21 21 21 22 22 24 23 24 21 19 15 12 9
13 15 18 18 18 20 21 20 20 22 22 22 23 24 25 25 26 28 28 25 22 18 15 14 13 13 10 6 11 20 18 17 18 19 19 22 24 25 24 21 17 13 10
14 15 16 17 17 20 21 19 23 24 22 22 23 23 23 23 23 27 27 28 26 24 20 16 14 15 14 14 14 13 12 17 17 16 18 19 20 23 25 24 20 16 13
13 14 13 14 17 20 20 20 24 23 23 24 24 22 23 22 22 27 25 28 28 26 23 20 18 17 17 15 12 12 14 18 17 20 19 21 20 22 26 25 21 18 16
Wind_Direction
215 212 211 202 188 181 183 189 189 199 214 203 207 226 232 240 222 238 259 245 244 259 267 281 285 266 259 262 269 264 242 244 260 296 303 316 316 323 324 321 321 316 313
204 196 189 179 181 191 196 200 203 201 196 205 243 245 237 217 233 250 271 259 252 253 263 264 262 255 258 262 255 245 252 258 272 286 307 312 316 323 323 321 322 319 316
197 190 184 188 193 193 189 189 189 179 198 234 251 240 230 235 243 269 280 263 252 252 257 253 253 255 262 267 262 252 259 265 272 280 296 308 313 321 324 322 323 321 320
197 194 191 188 187 186 182 176 182 215 288 218 220 243 250 249 263 274 273 255 247 247 246 252 248 260 269 263 251 259 262 267 276 285 297 302 308 316 314 316 316 316 313
195 193 189 189 189 180 170 163 151 136 147 109 296 278 266 277 277 272 267 258 248 238 246 246 256 265 259 255 255 257 252 261 276 291 293 295 299 307 308 314 307 313 316
196 185 177 174 167 161 150 128 116 106 106 59 248 251 267 277 301 290 271 270 248 245 240 246 258 261 259 261 263 255 257 264 282 289 295 285 290 296 313 316 310 309 316
173 164 165 162 151 137 128 122 120 118 270 265 264 274 297 305 304 293 282 259 248 244 244 252 256 261 261 256 251 250 256 270 286 295 286 289 295 311 315 311 305 295 288
150 151 154 153 143 133 119 112 154 272 264 271 285 295 300 300 305 301 282 258 249 249 251 253 259 262 257 253 252 251 263 278 294 293 282 290 301 314 312 310 308 309 307
110 110 116 117 116 116 114 277 273 265 270 269 290 297 303 305 311 300 284 257 253 251 253 259 256 262 267 266 252 254 268 284 299 284 275 285 304 315 318 314 317 315 311
100 105 103 90 54 326 300 272 270 269 270 275 293 295 289 291 305 291 283 275 257 255 261 261 253 259 268 258 249 256 267 289 293 277 285 296 306 314 322 316 316 305 305
109 111 145 199 280 286 274 271 282 288 285 287 288 291 290 293 292 281 281 274 267 262 261 260 256 256 260 259 255 253 268 290 278 277 289 299 305 310 315 317 314 310 293
104 107 329 302 283 282 287 289 286 287 283 285 291 293 294 293 287 281 287 278 273 265 264 265 262 255 252 255 254 254 267 276 272 278 286 292 298 303 310 315 318 314 307
45 19 333 307 299 294 291 290 289 288 288 289 287 291 291 291 291 289 287 281 272 269 268 267 264 255 247 250 254 254 261 266 266 272 278 286 297 301 307 314 320 322 319
1 336 323 313 310 304 296 292 293 291 290 288 286 286 284 292 295 292 284 282 278 269 269 267 266 252 253 247 251 247 254 268 266 272 278 283 290 294 304 316 326 333 334
337 332 325 320 314 311 307 304 303 299 292 288 285 286 282 284 293 298 295 285 282 275 273 265 258 249 248 242 246 252 254 267 264 265 272 275 277 288 301 313 325 332 332
342 340 339 338 335 331 327 321 311 308 306 300 295 287 283 279 285 285 286 286 281 276 264 249 244 239 239 242 247 257 255 262 261 260 265 265 262 282 292 303 319 327 331
14 3 353 347 343 339 332 323 314 313 308 305 302 298 291 284 279 274 282 281 281 274 244 247 245 239 239 245 250 257 257 261 265 255 258 258 253 271 273 286 306 317 327
360 357 353 347 340 332 325 319 315 310 310 308 303 298 296 293 290 285 272 276 270 259 249 250 247 244 245 249 253 253 259 260 251 254 251 246 244 256 261 277 292 305 323
354 352 348 345 342 337 332 326 320 314 308 304 305 305 301 294 291 289 272 263 254 255 257 254 249 248 248 252 254 255 254 253 247 247 247 242 241 243 254 268 279 292 313
357 357 353 348 342 341 335 333 335 335 322 309 302 299 302 306 283 275 275 261 258 255 261 262 257 256 250 252 254 253 252 247 243 242 244 243 241 239 247 256 263 276 301
1 359 352 354 350 343 339 332 327 330 337 335 325 307 297 291 285 280 272 264 257 260 261 267 273 261 250 251 251 247 246 247 244 244 243 247 236 232 241 245 249 259 283
358 358 357 352 346 345 342 337 336 337 335 335 342 348 0 344 283 264 256 272 271 274 303 297 285 269 260 250 250 249 246 243 245 245 243 246 239 232 232 231 235 245 257
1 358 358 357 356 350 349 350 344 343 340 341 345 352 358 4 8 12 22 30 17 18 359 357 335 296 272 270 260 252 249 249 250 249 245 243 240 230 224 222 225 229 234
0 358 0 358 357 355 352 348 344 347 344 344 347 350 354 357 360 1 1 360 358 4 1 353 338 330 322 325 271 266 267 265 262 258 254 246 237 231 221 217 218 221 221
2 360 1 1 359 354 350 348 346 348 345 344 343 346 347 349 353 355 354 349 348 352 351 344 342 338 328 313 303 283 268 268 268 265 260 249 243 232 218 214 212 209 207
3 2 356 359 1 357 352 346 344 344 342 343 344 341 341 343 345 344 346 344 345 344 340 337 332 331 331 330 322 307 282 263 259 259 255 249 240 229 215 209 205 206 202